VOZ1280 YBHM-YSSY

Flight info

Callsign VOZ1280
Flight time N/A
Altitude 37000
Route OVRON B462 MK H652 BOREE
Aircraft B38M/M-SDE1FGHILORVWXY/HB1

Departure

Time 2026-04-24 04:57
Airport Hamilton Island Airport (YBHM)

Arrival

Time N/A
Airport Sydney Kingsford Smith International Airport (YSSY)
Time Latitude Longitude Altitude Speed Heading
2026-04-24 04:36 -20.35252 148.94989 23 ft 0 kts 143°
2026-04-24 04:52 -20.35256 148.94992 23 ft 1 kts 147°
2026-04-24 04:52 -20.35265 148.94991 25 ft 1 kts 209°
2026-04-24 04:52 -20.35282 148.94977 23 ft 5 kts 213°
2026-04-24 04:53 -20.35305 148.94982 25 ft 4 kts 147°
2026-04-24 04:53 -20.35335 148.95000 23 ft 6 kts 165°
2026-04-24 04:53 -20.35375 148.94984 24 ft 7 kts 233°
2026-04-24 04:53 -20.35405 148.94940 23 ft 8 kts 237°
2026-04-24 04:54 -20.35402 148.94889 26 ft 3 kts 304°
2026-04-24 04:54 -20.35371 148.94862 24 ft 11 kts 323°
2026-04-24 04:54 -20.35296 148.94803 24 ft 15 kts 323°
2026-04-24 04:54 -20.35206 148.94731 22 ft 18 kts 323°
2026-04-24 04:55 -20.35120 148.94696 21 ft 12 kts
2026-04-24 04:55 -20.35099 148.94695 23 ft 4 kts 340°
2026-04-24 04:55 -20.35092 148.94680 22 ft 3 kts 277°
2026-04-24 04:55 -20.35100 148.94659 22 ft 2 kts 224°
2026-04-24 04:56 -20.35112 148.94655 22 ft 1 kts 180°
2026-04-24 04:56 -20.35128 148.94668 23 ft 12 kts 144°
2026-04-24 04:56 -20.35441 148.94919 24 ft 98 kts 143°
2026-04-24 04:56 -20.36148 148.95523 194 ft 150 kts 138°
2026-04-24 04:57 -20.37073 148.96142 1006 ft 164 kts 154°
2026-04-24 04:57 -20.38232 148.96441 1885 ft 178 kts 166°
2026-04-24 04:57 -20.39509 148.96666 2573 ft 194 kts 164°
2026-04-24 04:57 -20.40895 148.96982 3272 ft 215 kts 162°
2026-04-24 04:58 -20.42403 148.97367 4014 ft 235 kts 162°
2026-04-24 04:58 -20.44055 148.97808 4837 ft 253 kts 162°
2026-04-24 04:58 -20.45778 148.98280 5909 ft 256 kts 162°
2026-04-24 04:58 -20.47522 148.98763 6965 ft 263 kts 162°
2026-04-24 04:59 -20.49302 148.99264 7978 ft 266 kts 162°
2026-04-24 04:59 -20.51108 148.99776 9012 ft 272 kts 162°
2026-04-24 04:59 -20.52943 149.00297 9975 ft 266 kts 163°
2026-04-24 04:59 -20.54787 149.00823 10464 ft 285 kts 163°
2026-04-24 05:00 -20.56765 149.01390 10983 ft 304 kts 164°
2026-04-24 05:00 -20.58717 149.01947 11494 ft 319 kts 164°
2026-04-24 05:00 -20.60909 149.02573 12146 ft 331 kts 165°
2026-04-24 05:00 -20.63141 149.03210 13068 ft 333 kts 165°
2026-04-24 05:01 -20.65402 149.03856 13871 ft 340 kts 165°
2026-04-24 05:01 -20.67704 149.04512 14592 ft 345 kts 166°
2026-04-24 05:01 -20.70052 149.05183 15239 ft 352 kts 167°
2026-04-24 05:01 -20.72438 149.05865 15915 ft 358 kts 167°
2026-04-24 05:02 -20.74859 149.06557 16572 ft 363 kts 168°
2026-04-24 05:02 -20.77317 149.07260 17235 ft 368 kts 168°
2026-04-24 05:02 -20.79811 149.07973 17895 ft 373 kts 168°
2026-04-24 05:02 -20.82333 149.08693 18523 ft 378 kts 169°
2026-04-24 05:03 -20.84528 149.09322 18991 ft 381 kts 169°
2026-04-24 05:03 -20.87078 149.10051 19541 ft 385 kts 169°
2026-04-24 05:03 -20.89675 149.10795 20102 ft 389 kts 169°
2026-04-24 05:03 -20.92291 149.11545 20666 ft 392 kts 169°
2026-04-24 05:04 -20.94951 149.12307 21231 ft 396 kts 170°
2026-04-24 05:04 -20.97633 149.13076 21758 ft 400 kts 170°
2026-04-24 05:04 -21.00297 149.13840 22290 ft 404 kts 170°
2026-04-24 05:04 -21.03027 149.14622 22815 ft 407 kts 170°
2026-04-24 05:05 -21.05775 149.15411 23326 ft 411 kts 171°
2026-04-24 05:05 -21.08549 149.16207 23826 ft 415 kts 171°
2026-04-24 05:05 -21.11346 149.17011 24268 ft 417 kts 171°
2026-04-24 05:05 -21.14155 149.17818 24739 ft 420 kts 171°
2026-04-24 05:06 -21.16985 149.18613 25181 ft 420 kts 174°
2026-04-24 05:06 -21.19861 149.19013 25601 ft 418 kts 180°
2026-04-24 05:06 -21.22767 149.19398 26020 ft 422 kts 179°
2026-04-24 05:06 -21.25681 149.19810 26471 ft 424 kts 179°
2026-04-24 05:07 -21.28614 149.20240 26885 ft 427 kts 178°
2026-04-24 05:07 -21.31563 149.20678 27311 ft 429 kts 178°
2026-04-24 05:07 -21.34529 149.21122 27738 ft 431 kts 178°
2026-04-24 05:07 -21.37511 149.21568 28160 ft 434 kts 178°
2026-04-24 05:08 -21.40509 149.22017 28536 ft 436 kts 178°
2026-04-24 05:08 -21.43517 149.22469 28959 ft 438 kts 178°
2026-04-24 05:08 -21.46548 149.22923 29335 ft 441 kts 179°
2026-04-24 05:08 -21.49594 149.23381 29748 ft 443 kts 179°
2026-04-24 05:09 -21.52655 149.23840 30147 ft 445 kts 179°
2026-04-24 05:09 -21.55724 149.24301 30470 ft 447 kts 179°
2026-04-24 05:09 -21.58819 149.24766 30781 ft 450 kts 179°
2026-04-24 05:09 -21.61925 149.25233 31109 ft 452 kts 179°
2026-04-24 05:10 -21.65044 149.25702 31416 ft 454 kts 179°
2026-04-24 05:10 -21.68184 149.26175 31721 ft 456 kts 179°
2026-04-24 05:10 -21.71334 149.26649 32046 ft 458 kts 179°
2026-04-24 05:10 -21.74495 149.27125 32369 ft 460 kts 179°
2026-04-24 05:11 -21.77674 149.27604 32665 ft 462 kts 179°
2026-04-24 05:11 -21.80827 149.28079 32957 ft 464 kts 179°
2026-04-24 05:11 -21.84038 149.28564 33274 ft 466 kts 179°
2026-04-24 05:11 -21.87246 149.29047 33721 ft 465 kts 179°
2026-04-24 05:12 -21.90439 149.29529 34171 ft 463 kts 179°
2026-04-24 05:12 -21.93630 149.30012 34470 ft 464 kts 179°
2026-04-24 05:12 -21.96829 149.30495 34877 ft 461 kts 179°
2026-04-24 05:12 -22.00000 149.30974 35264 ft 460 kts 179°
2026-04-24 05:13 -22.06321 149.31930 35970 ft 457 kts 179°
2026-04-24 05:13 -22.09477 149.32408 36310 ft 456 kts 179°
2026-04-24 05:13 -22.12623 149.32885 36619 ft 456 kts 180°
2026-04-24 05:14 -22.15758 149.33359 36928 ft 455 kts 180°
2026-04-24 05:14 -22.18890 149.33834 37179 ft 455 kts 180°
2026-04-24 05:14 -22.22034 149.34310 37177 ft 459 kts 180°
2026-04-24 05:15 -22.28370 149.35272 37182 ft 465 kts 179°
2026-04-24 05:15 -22.34801 149.36248 37182 ft 469 kts 179°
2026-04-24 05:16 -22.41293 149.37234 37169 ft 472 kts 180°
2026-04-24 05:16 -22.47770 149.37559 37188 ft 466 kts 185°
2026-04-24 05:17 -22.54272 149.37850 37178 ft 468 kts 185°
2026-04-24 05:17 -22.60791 149.38171 37178 ft 469 kts 185°
2026-04-24 05:18 -22.67323 149.38494 37174 ft 470 kts 185°
2026-04-24 05:18 -22.73865 149.38819 37179 ft 470 kts 185°
2026-04-24 05:19 -22.80404 149.39144 37180 ft 470 kts 185°
2026-04-24 05:19 -22.86896 149.39467 37181 ft 470 kts 185°
2026-04-24 05:20 -22.93425 149.39792 37181 ft 470 kts 185°
2026-04-24 05:20 -22.99954 149.40117 37182 ft 469 kts 185°
2026-04-24 05:21 -23.06478 149.40442 37180 ft 469 kts 185°
2026-04-24 05:21 -23.12995 149.40767 37178 ft 469 kts 185°
2026-04-24 05:22 -23.19511 149.41093 37181 ft 468 kts 185°
2026-04-24 05:22 -23.26013 149.41418 37173 ft 468 kts 185°
2026-04-24 05:23 -23.32516 149.41744 37179 ft 468 kts 185°
2026-04-24 05:23 -23.39024 149.42070 37176 ft 468 kts 185°
2026-04-24 05:24 -23.44425 149.42340 37183 ft 467 kts 185°
2026-04-24 05:24 -23.52017 149.42722 37183 ft 467 kts 185°
2026-04-24 05:25 -23.58509 149.43048 37184 ft 467 kts 185°
2026-04-24 05:25 -23.65005 149.43375 37186 ft 467 kts 184°
2026-04-24 05:26 -23.71447 149.43699 37186 ft 466 kts 184°
2026-04-24 05:26 -23.76882 149.43973 37188 ft 466 kts 184°
2026-04-24 05:27 -23.83316 149.44297 37189 ft 466 kts 184°
2026-04-24 05:27 -23.89828 149.44627 37191 ft 465 kts 184°
2026-04-24 05:28 -23.96253 149.44951 37198 ft 465 kts 184°
2026-04-24 05:28 -24.02717 149.45278 37197 ft 465 kts 184°
2026-04-24 05:29 -24.09187 149.45605 37198 ft 465 kts 184°
2026-04-24 05:29 -24.15654 149.45934 37191 ft 465 kts 184°
2026-04-24 05:30 -24.22107 149.46261 37192 ft 464 kts 184°
2026-04-24 05:30 -24.28564 149.46589 37201 ft 464 kts 184°
2026-04-24 05:31 -24.34969 149.46915 37195 ft 463 kts 184°
2026-04-24 05:31 -24.41407 149.47243 37199 ft 463 kts 184°
2026-04-24 05:32 -24.47845 149.47571 37198 ft 462 kts 183°
2026-04-24 05:32 -24.54271 149.47898 37201 ft 462 kts 183°
2026-04-24 05:33 -24.60696 149.48226 37200 ft 462 kts 183°
2026-04-24 05:33 -24.67115 149.48554 37203 ft 461 kts 183°
2026-04-24 05:34 -24.73270 149.48871 37203 ft 426 kts 182°
2026-04-24 05:34 -24.76177 149.49019 37205 ft 415 kts 183°
2026-04-24 05:34 -24.81943 149.49313 37204 ft 415 kts 182°
2026-04-24 05:35 -24.87706 149.49609 37203 ft 414 kts 183°
2026-04-24 05:35 -24.93466 149.49905 37207 ft 414 kts 182°
2026-04-24 05:36 -24.99228 149.50201 37207 ft 414 kts 182°
2026-04-24 05:36 -25.04986 149.50497 37207 ft 414 kts 182°
2026-04-24 05:37 -25.10744 149.50793 37212 ft 414 kts 182°
2026-04-24 05:37 -25.16493 149.51089 37210 ft 414 kts 182°
2026-04-24 05:38 -25.22242 149.51385 37207 ft 413 kts 182°
2026-04-24 05:38 -25.27984 149.51678 37213 ft 413 kts 182°
2026-04-24 05:39 -25.33570 149.51963 37208 ft 413 kts 182°
2026-04-24 05:39 -25.39277 149.52255 37215 ft 413 kts 182°
2026-04-24 05:40 -25.45016 149.52548 37217 ft 413 kts 182°
2026-04-24 05:40 -25.50751 149.52842 37217 ft 413 kts 182°
2026-04-24 05:41 -25.56488 149.53136 37208 ft 412 kts 182°
2026-04-24 05:41 -25.62218 149.53430 37213 ft 412 kts 182°
2026-04-24 05:42 -25.67792 149.53716 37220 ft 412 kts 182°
2026-04-24 05:42 -25.73524 149.54011 37221 ft 412 kts 182°
2026-04-24 05:43 -25.79252 149.54306 37223 ft 412 kts 182°
2026-04-24 05:43 -25.84986 149.54601 37227 ft 412 kts 182°
2026-04-24 05:44 -25.90607 149.54891 37228 ft 412 kts 182°
2026-04-24 05:44 -25.96305 149.55185 37228 ft 412 kts 182°
2026-04-24 05:45 -26.01929 149.55475 37233 ft 412 kts 182°
2026-04-24 05:45 -26.07656 149.55771 37232 ft 412 kts 182°
2026-04-24 05:46 -26.13280 149.56062 37231 ft 412 kts 182°
2026-04-24 05:46 -26.19010 149.56359 37239 ft 412 kts 182°
2026-04-24 05:47 -26.24599 149.56649 37238 ft 412 kts 182°
2026-04-24 05:47 -26.30325 149.56946 37241 ft 412 kts 182°
2026-04-24 05:48 -26.36046 149.57243 37244 ft 412 kts 181°
2026-04-24 05:48 -26.41768 149.57541 37245 ft 412 kts 181°
2026-04-24 05:49 -26.47492 149.57839 37248 ft 412 kts 181°
2026-04-24 05:49 -26.52248 149.58087 37245 ft 412 kts 181°